THORAD AGENA D DEB, 5392

Orbit data source: Space-Track

THORAD AGENA D DEB, 5392 is space debris in SSO originally from a launch on Wed, 08 Apr 1970 UTC launched from the Air Force Western Test Range (AFWTR). Debris objects in space refer to the collection of defunct objects orbiting the Earth. Examples of debris include non-operational satellites, rocket bodies, and fragments generated from explosions, collisions, or faulty payload assembly.

Loading next visibility...
Identifier
5392, 1970-025KX
Orbit
SSO
Country
Flag of USUS
Related business
Manufacturer
Unknown
Mission
Spacecraft
Bus & Motor
Unknown
Mass
Unknown
Launch date (UTC)
1970-04-08 (56 years ago)
Launch vehicle
Unknown
Launch site
Air Force Western Test Range (AFWTR)
Object type
Payload
Rocket body
Debris
Shape & HBR
Unknown shape, 0.1 m
Radar Cross Section
Medium (>0.1 m² and <1 m²)

Expand to show TLE details & history
Last TLE update: 19 hours ago

TLE from 19 hours ago
0 THORAD AGENA D DEB
1 05392U 70025KX  26207.83044944  .00001295  00000-0  73676-3 0  9995
2 05392 100.0358 165.4125 0044538 159.8722 200.4214 14.11481873850116
Epoch: 2026-07-26T19:55Z
TLE epoch observation values (Epoch: 2026-07-26T19:55:50.831Z)
Latitude
-0.00002°
Longitude
-78.07204°
Altitude
887.373 km
Speed
7.393 km/s
True Right ascension
11h 01m 39s
True Declination
0° 00' 00"
Sunlit
Object was in daylight at epoch
Visualization orbit readout
Latitude
Unknown
Longitude
Unknown
Altitude
Unknown
Speed
Unknown
Apparent Right ascension
Unknown
Apparent Declination
Unknown
Sunlit
N/A
Visualization observer readout
Local Sidereal Time
03:53:33
Azimuth
Unknown
Elevation
Unknown
Doppler factor
Unknown
Orbital elements
Apogee altitude
883.743 km
Perigee altitude
819.343 km
Semi-major axis
7,229.68 km
Eccentricity
0.00445
Inclination
100.0358°
RAAN
165.4125°
Arg. of periapsis
159.8722°
True anomaly
200.24425°
Mean anomaly
200.4214°
Eccentric anomaly
200.33273°
Mean motion
3.53073 °/min
Orbital period
101.96 mins
BSTAR
0.00073676
Loading maneuver chart data...
Computing Atmospheric mass density...

Documentation

Showing up to 5 results
|